Погода в Тикси

Погода в Тикси : погода сейчас, прогноз погоды и архив. Всё, что Вы хотите узнать о погоде в Тикси!

Хотите узнать прогноз погоды в Тикси? Тогда Вам сюда: Погода в Тикси

Поиск расширенной информации на нашем сайте:

Другие новости

Новости СМИ2

Главная страница сайта

Новости сайта

03.07.2017

Напоминаем, что на нашем специализированном сайте Метеоцентр.Азия вы можете получить высокодетализированные автоматические прогнозы погоды по пунктам России, СНГ и мира в авиационном формате (включающие направление и скорость ветра, видимость, явления погоды, количество и форму облачности, нижнюю и верхнюю границу облачности).

Рекомендуем: Запчасти КамАЗ на экспорт: KAMAZ spare parts and details

Погода в Тикси - сегодня

Время (UTC), дата Ветер
(°,м/с) 
Видим.   Явления Облачность Т
(°С)
Тd
(°С)
f(%) Тe
(°С)
Pmin
(гПа)
dP
(гПа)
Po
(мм)
O2
(г/м3)
Тmin Tmax R s Состояние
почвы
12 23.07.17 320 (СЗ) 6{10}  20000 м  {морось}  10/10 600 м 
[Sc]
+5.4 +1.6 76 +3  1011.5  1.3  758  299    +6.2  0.1     
15 23.07.17 290 (З) 20000 м    10/10 300 м 
[Sc]
+4.3 +1.5 82 +3  1012.2  0.7  759  301           
18 23.07.17 280 (З) 20000 м    10/5 600 м средняя 
[Sc|Ac und]
+4.2 +2.4 88 +3  1012.2  759  301           
21 23.07.17 270 (З) 20000 м    10/0 средняя 
[Ac und]
+5.1 +1.8 79 +3  1012.3  0.1  759  300           
00 24.07.17 270 (З) 5{10}  20000 м    10/0 средняя 
[Ac und]
+6.4 +2.2 74 +5  1012.9  0.6  759  299  +3.5        влажная 
03 24.07.17 080 (В) 20000 м    10/1 1000 м средняя, верхняя 
[Sc|Ac trans|Ci fib]
+9 +2.3 63 +8  1012.7  -0.2  759  296           
06 24.07.17 140 (ЮВ) 20000 м    10/10 1000 м 
[Sc]
+10.7 +2.5 57 +10  1012.1  -0.6  758  294           
09 24.07.17 140 (ЮВ) 20000 м    9/3 1000 м средняя 
[Sc|Ac trans]
+10.9 +3.6 61 +9  1009.9  -2.2  757  293           
12 24.07.17 170 (Ю) 5{10}  20000 м    3/0 средняя, верхняя 
[Ac trans|Ci fib]
+10.2 +3.3 62 +9  1009  -0.9  756  293    +11.8       
15 24.07.17 220 (ЮЗ) 20000 м    1/0 верхняя 
[Ci fib]
+5.5 +3.8 89 +5  1007.8  -1.2  755  298           
18 24.07.17 200 (Ю) 20000 м    8/0 верхняя 
[Ci fib]
+4.7 +3.2 90 +4  1006.4  -1.4  754  298           
21 24.07.17 250 (З) 9-11{12}  20000 м    10/0 средняя, верхняя 
[Ac trans|Ci fib]
+10.2 +3.3 62 +8  1004.8  -1.6  753  292           
00 25.07.17 240 (ЮЗ) 9-12{13}  20000 м    4/0 средняя, верхняя 
[Ac lent|Ci fib]
+13.6 +3.3 50 +12  1004.2  -0.6  753  288  +4        сухая 
03 25.07.17 250 (З) 8-11{14}  20000 м    8/0 средняя, верхняя 
[Ac trans|Ci fib]
+16.4 +3.3 42 +16  1002.8  -1.4  752  285           
06 25.07.17 230 (ЮЗ) 8-10{12}  20000 м  {дождь}  10/0 средняя, верхняя 
[Ac trans|Ci fib]
+15.4 +5.5 52 +14  1002.7  -0.1  751  286           
09 25.07.17 250 (З) 5{10}  20000 м    10/0 средняя, верхняя 
[Ac trans|Ci fib]
+15 +5.8 54 +15  1002.8  0.1  752  286           
12 25.07.17 250 (З) 20000 м  {дождь}  10/0 средняя, верхняя 
[Ac trans|Ci fib]
+11 +7.4 78 +11  1002.9  0.1  752  290    +16.8  0.0     
15 25.07.17 360 (С) 20000 м    10/6 1000 м средняя 
[Sc|Ac trans]
+9.2 +6.8 85 +9  1003  0.1  752  292           
18 25.07.17 010 (С) 10 км  слаб. дождь  10/10 1000 м 
[Sc]
+8.1 +7 93 +7  1001.9  -1.1  751  293           
21 25.07.17 340 (С) 10 км  слаб. дождь  10/10 300 м 
[Sc]
+7.5 +6.4 93 +5  1001.7  -0.2  751  293           
00 26.07.17 360 (С) 4000 м  слаб. морось{дождь}  10/10 200 м 
[St]
+7.4 +5.4 87 +6  1002  0.3  751  294  +7.2      мокрая 
03 26.07.17 020 (С) 20000 м  {морось}  10/10 600 м 
[Sc]
+7.9 +5.4 84 +7  1002.4  0.4  751  293           
06 26.07.17 020 (С) 20000 м  {дождь, морось}  10/10 600 м 
[Sc]
+8.3 +5.4 82 +8  1002.9  0.5  752  293           
09 26.07.17 330 (СЗ) 10 км  слаб. дождь  10/10 300 м 
[Sc]
+6.6 +5.2 91 +6  1003.7  0.8  752  295           
12 26.07.17 340 (С) 10 км  слаб. дождь  10/10 600 м 
[Sc]
+6 +3.9 86 +5  1004.3  0.6  753  296    +8.4  0.3     
Время (UTC), дата Ветер
(°,м/с) 
Видим.   Явления Облачность Т
(°С)
Тd
(°С)
f(%) Тe
(°С)
Pmin
(гПа)
dP
(гПа)
Po
(мм)
O2
(г/м3)
Тmin Tmax R s Состояние
почвы

Для получения пояснительной информации подведите курсор к названию столбца.

ПОГОДА в Тикси - архив

Всё, что Вы хотите узнать о погоде в Тикси - удобно и подробно!

Выберите нужную дату (начиная с 1 января 2015* года) и нажмите кнопку "Найти".
Будут отображены архивные сводки погоды по пункту Тикси, начиная с указанной даты.


Отображать данные в формате CSV (для использования в таблицах Excel)


Внимание! Наш архив погоды предназначен исключительно для личного некоммерческого использования в познавательных целях. Если Вам необходимы официальные справки о состоянии погоды (для производственных, юридических, коммерческих и т.п. целей), обращайтесь в органы Росгидромета.

*Примечание: данная дата относится к архиву по метеостанциям СССР (Россия, СНГ, Балтия).
Архив по метеостанциям Зарубежной Европы и Азии (кроме Китая) хранится 10 дней, по другим регионам земного шара (Китай, Африка, Америка, Австралия, Океания) - 1 день.

Тикси - район местоположения метеостанции


Название, широта, долгота, высота метеостанции:
Тикси (посёлок) 71.6°ш. 128.9°д. 7 м над ур. моря [Российская Федерация]

Дополнительная информация

В oтличие oт бoльшинства пoгoдных сайтoв мы публикуем пoдрoбную метеoинфoрмацию в детальнoм прoфессиoнальнoм фoрмате.

Характеристики температуры и влажнoсти вoздуха измеряются на высoте 2 м в тени вдали oт зданий и деревьев.
Скoрoсть ветра измеряется на высoте 10 м (на урoвне рoста челoвека скoрoсть ветра ниже в 1.5-2 раза). Если метеoстанция нахoдится в гoрoде или в лесу, тo скoрoсть ветра занижена на 2-4 м/с пo сравнению с oткрытым местoм. Скoрoсть ветра над акватoриями крупных рек и oзёр, а также на вершинах хoлмoв на 2-5 м/с выше, чем в oбычных услoвиях.
Атмoсфернoе давление в разных тoчках местнoсти мoжет значительнo oтличаться oт давления на метеoстанции, в зависимoсти oт услoвий рельефа (при пoдъёме на 10 м давление пoнижается примернo на 1 мм рт.ст.).